Date,TemperatureHighF,TemperatureAvgF,TemperatureLowF,DewpointHighF,DewpointAvgF,DewpointLowF,HumidityHigh,HumidityAvg,HumidityLow,PressureMaxIn,PressureMinIn,WindSpeedMaxMPH,WindSpeedAvgMPH,GustSpeedMaxMPH,PrecipitationSumIn
2013-1-1,3,-2,-4,-6,-12,-13,65,62,61,30.25,30.09,10,1,10,0.00
2013-1-2,32,18,1,27,12,-8,93,77,65,30.13,29.99,20,7,20,0.00
2013-1-3,29,18,6,27,11,-1,93,75,56,30.33,30.13,16,7,17,0.00
2013-1-4,35,20,7,26,13,1,85,75,66,30.25,30.11,24,5,26,0.00
2013-1-5,39,24,12,34,19,8,87,81,76,30.12,29.90,30,9,30,0.00
2013-1-6,30,18,13,20,11,7,80,75,67,30.25,30.08,14,6,14,0.01
2013-1-7,43,30,16,34,24,10,87,79,70,30.13,29.95,30,8,30,0.00
2013-1-8,42,30,18,37,26,15,92,87,80,30.05,29.81,19,5,20,0.00
2013-1-9,46,34,26,38,30,24,91,86,70,30.40,30.05,17,5,17,0.00
2013-1-10,29,26,24,26,23,20,90,88,86,30.34,30.26,5,1,6,0.00
2013-1-11,47,43,24,45,41,20,100,92,85,30.26,29.40,24,13,26,0.02
2013-1-12,36,21,10,34,13,0,93,70,62,30.08,29.58,26,10,28,0.00
2013-1-13,14,10,4,5,-2,-5,68,60,56,30.16,30.02,12,5,12,0.00
2013-1-14,30,17,5,15,6,-3,75,63,47,30.41,30.15,15,3,16,0.00
2013-1-15,34,22,12,20,11,4,73,64,49,30.32,29.99,13,6,14,0.00
2013-1-16,47,31,18,38,25,9,88,76,67,30.18,29.84,16,8,17,0.00
2013-1-17,39,25,14,28,17,6,85,70,49,30.42,30.18,8,1,9,0.00
2013-1-18,52,38,23,39,31,18,87,77,59,30.27,29.83,25,11,27,0.00
2013-1-19,51,38,15,38,28,2,82,69,54,30.26,29.77,17,8,18,0.00
2013-1-20,19,11,1,7,0,-10,66,60,55,30.38,30.25,10,2,11,0.00
2013-1-21,12,3,-7,-7,-14,-24,63,46,33,30.40,30.30,16,5,17,0.00
2013-1-22,21,11,0,0,-7,-12,59,45,33,30.38,30.25,8,1,8,0.00
2013-1-23,27,15,0,17,2,-17,69,58,43,30.50,30.12,10,6,11,0.00
2013-1-24,17,8,-1,-7,-13,-18,50,39,33,30.54,30.16,14,7,15,0.00
2013-1-25,39,23,10,26,10,-7,71,58,33,30.26,30.04,14,5,15,0.00
2013-1-26,35,20,4,16,4,-6,65,51,33,30.30,30.08,14,5,14,0.00
2013-1-27,35,33,30,35,29,15,100,88,54,30.08,29.71,15,3,16,0.04
2013-1-28,41,36,33,41,36,33,100,100,100,29.89,29.53,13,3,14,0.00
2013-1-29,39,34,28,39,34,27,100,99,95,29.66,29.50,14,4,15,0.02
2013-1-30,29,21,11,27,17,3,95,84,70,29.85,29.53,15,8,16,0.00
2013-1-31,13,4,-4,2,-8,-19,69,56,46,30.33,29.85,19,7,20,0.02
2013-2-1,23,7,-9,16,-6,-21,72,57,33,30.35,29.99,20,7,21,0.00
2013-2-2,31,23,13,27,12,5,86,63,46,30.16,29.97,18,5,19,0.00
2013-2-3,36,26,14,26,17,6,82,70,56,30.13,29.74,15,7,16,0.00
2013-2-4,33,24,17,27,17,10,80,74,63,30.00,29.71,9,4,10,0.00
2013-2-5,50,32,21,39,26,16,88,79,67,30.08,29.75,15,4,16,0.00
2013-2-6,44,34,25,39,31,22,97,89,78,30.08,29.87,14,4,14,0.00
2013-2-7,35,31,26,33,29,22,96,91,88,30.19,29.86,10,4,10,0.04
2013-2-8,29,25,22,24,21,18,89,85,80,30.32,30.18,18,5,20,0.00
2013-2-9,37,31,25,33,28,22,97,90,84,30.20,29.76,25,12,27,0.04
2013-2-10,48,36,31,48,34,24,100,93,78,29.77,29.25,41,16,43,0.45
2013-2-11,33,29,26,25,22,20,78,74,70,30.10,29.60,25,10,27,0.04
2013-2-12,47,33,19,33,24,14,84,71,52,30.11,29.85,15,5,16,0.00
2013-2-13,48,37,23,37,30,18,87,74,65,29.86,29.66,11,5,12,0.00
2013-2-14,45,33,20,35,24,10,77,68,60,30.18,29.90,15,6,16,0.00
2013-2-15,33,22,14,20,9,-2,71,58,33,30.30,30.18,8,2,8,0.00
2013-2-16,39,25,9,20,12,1,76,60,33,30.27,30.04,11,2,12,0.00
2013-2-17,35,20,18,23,11,7,78,69,61,30.04,29.62,16,6,17,0.00
2013-2-18,40,29,19,35,22,8,89,74,60,29.86,29.55,16,5,17,0.00
2013-2-19,19,11,4,8,-4,-14,62,51,33,30.34,29.86,14,7,15,0.00
2013-2-20,21,12,-2,5,-7,-18,59,43,33,30.39,30.23,12,3,12,0.00
2013-2-21,23,19,15,19,11,4,91,71,53,30.27,29.81,22,10,23,0.00
2013-2-22,36,28,18,33,22,15,94,80,56,29.96,29.76,14,6,15,0.00
2013-2-23,37,19,4,26,8,-5,75,63,34,29.96,29.85,9,2,9,0.00
2013-2-24,44,26,8,28,18,2,84,72,51,30.05,29.89,7,1,8,0.00
2013-2-25,45,33,28,34,28,25,90,82,65,30.06,29.89,7,0,8,0.00
2013-2-26,34,29,26,30,26,22,93,87,81,29.89,29.72,10,6,10,0.02
2013-2-27,34,28,21,26,23,16,88,81,71,29.99,29.78,50,6,53,0.02
2013-2-28,40,28,20,29,21,15,84,76,62,30.15,29.99,9,4,10,0.00
2013-3-1,37,26,22,26,19,13,84,73,59,30.30,30.13,8,3,8,0.00
2013-3-2,45,26,14,23,14,-6,77,61,40,30.30,30.12,6,0,6,0.00
2013-3-3,35,26,15,24,18,9,79,71,61,30.12,29.84,18,9,19,0.00
2013-3-4,38,32,26,32,28,-7,94,84,14,29.94,29.75,17,8,18,0.00
2013-3-5,37,29,22,31,23,16,94,78,69,30.28,29.92,15,7,16,0.00
2013-3-6,36,28,21,24,19,16,82,69,56,30.39,30.27,8,1,9,0.00
2013-3-7,30,30,30,19,19,19,64,64,64,30.31,30.31,0,0,0,0.00
2013-3-8,35,30,30,33,21,19,93,68,64,30.31,29.99,14,1,15,0.04
2013-3-9,42,38,34,42,38,33,100,99,93,29.99,29.66,23,8,24,0.43
2013-3-10,38,32,-22,38,32,-22,100,100,98,29.79,29.64,17,4,18,0.26
2013-3-11,42,28,18,30,22,10,97,79,54,29.92,29.74,0,0,0,0.00
2013-3-12,40,26,16,30,18,10,85,72,60,30.23,29.92,12,2,12,0.02
2013-3-13,21,19,17,13,11,9,72,72,71,30.28,30.23,8,3,9,0.00
2013-3-14,56,48,36,39,36,30,80,64,50,30.09,30.04,12,1,12,0.00
2013-3-15,38,36,35,34,33,32,93,91,88,29.81,29.74,8,3,8,0.00
2013-3-16,35,33,32,34,31,30,96,92,91,30.00,29.79,9,7,9,0.00
2013-3-17,39,29,20,30,21,13,91,73,63,30.15,29.81,18,9,20,0.00
2013-3-18,42,30,20,32,22,10,96,73,54,29.97,29.69,25,8,27,0.00
2013-3-19,40,28,15,22,12,0,74,54,33,30.23,29.97,18,4,19,0.00
2013-3-20,33,23,13,15,6,-4,73,50,33,30.32,30.10,15,5,16,0.00
2013-3-21,34,23,11,16,7,0,70,52,33,30.11,29.93,13,4,13,0.00
2013-3-22,31,24,20,24,17,12,76,74,70,30.04,30.01,5,1,5,0.00
2013-3-23,38,31,26,24,22,19,83,69,50,30.11,29.99,13,4,13,0.00
2013-3-24,32,28,24,27,24,20,92,83,76,30.02,29.90,12,6,12,0.00
2013-3-25,36,30,24,26,23,20,92,77,63,30.25,29.96,12,6,13,0.04
2013-3-26,46,33,18,28,19,12,79,59,33,30.31,30.23,12,2,12,0.02
2013-3-27,48,36,22,32,26,16,83,66,46,30.30,30.20,13,2,14,0.00
2013-3-28,58,42,26,39,32,22,89,70,47,30.27,30.17,13,3,14,0.00
2013-3-29,63,50,30,43,37,28,92,64,43,30.25,30.10,17,5,18,0.00
2013-3-30,61,51,41,54,46,37,100,81,51,30.10,29.85,15,4,16,0.08
2013-3-31,58,43,31,45,36,23,100,77,48,30.09,29.88,15,5,16,0.00
2013-4-1,41,32,21,24,18,13,77,59,35,30.28,30.09,10,4,11,0.00
2013-4-2,52,36,20,32,22,14,81,58,33,30.31,30.25,13,2,13,0.00
2013-4-3,54,38,23,32,26,19,87,63,33,30.36,30.20,15,5,16,0.00
2013-4-4,67,47,27,46,33,19,79,59,43,30.21,30.02,18,5,20,0.00
2013-4-5,61,47,29,40,33,25,92,62,33,30.17,29.77,229,8,229,0.00
2013-4-6,69,57,45,53,45,40,82,66,54,29.78,29.56,26,10,28,0.04
2013-4-7,67,49,32,49,41,30,100,77,52,29.91,29.66,20,5,21,0.00
2013-4-8,66,50,45,55,42,24,95,74,44,29.77,29.66,16,3,18,0.00
2013-4-9,59,49,40,55,49,39,100,100,87,29.95,29.70,28,14,28,0.59
2013-4-10,40,38,36,40,38,36,100,100,100,29.94,29.72,27,6,29,0.42
2013-4-11,41,38,35,40,37,35,100,98,93,29.72,29.58,20,7,21,0.22
2013-4-12,44,36,33,38,33,28,100,89,74,29.94,29.60,19,8,20,0.00
2013-4-13,58,44,29,42,34,25,89,69,51,29.99,29.81,16,6,17,0.00
2013-4-15,45,40,36,38,35,31,84,81,77,30.05,29.93,8,1,8,0.00
2013-4-16,52,43,32,42,36,30,94,79,63,30.22,30.04,10,4,10,0.00
2013-4-17,50,42,40,42,40,38,100,95,71,30.17,29.61,34,8,34,1.32
2013-4-18,40,36,35,40,36,35,100,100,99,29.77,29.58,21,8,22,0.34
2013-4-19,50,38,28,36,30,24,99,73,55,30.06,29.58,28,10,29,0.00
2013-4-20,52,40,24,37,27,20,87,63,33,30.25,30.06,14,4,14,0.00
2013-4-21,69,53,39,52,42,30,97,68,36,30.20,30.02,31,13,33,0.43
2013-4-22,67,52,34,56,49,34,100,91,64,30.13,29.88,28,5,28,0.38
2013-4-23,43,35,31,37,31,26,98,84,69,30.15,30.06,13,8,14,0.00
2013-4-24,57,44,25,39,32,22,90,65,41,30.13,29.99,30,9,30,0.00
2013-4-25,53,47,31,41,36,27,90,68,59,30.22,30.13,10,7,10,0.00
2013-4-26,73,59,45,54,47,35,86,67,51,30.22,30.04,31,14,32,0.04
2013-4-27,75,62,42,56,50,42,100,69,48,30.19,30.02,13,2,13,0.00
2013-4-28,81,65,45,57,52,43,97,66,43,30.02,29.72,23,9,24,0.00
2013-4-29,84,69,54,64,58,51,99,70,47,29.76,29.52,23,6,24,0.00
2013-4-30,87,73,56,64,57,48,78,58,40,29.89,29.51,31,13,31,0.59
2013-5-1,57,46,35,49,41,34,100,84,72,30.34,29.87,20,12,20,0.24
2013-5-2,37,35,32,36,33,32,100,94,82,30.43,30.30,18,4,19,0.67
2013-5-3,35,34,33,34,32,31,100,96,92,30.33,29.97,229,8,229,0.00
2013-5-4,44,38,33,44,38,33,100,100,100,30.07,29.89,14,7,15,0.12
2013-5-5,58,49,41,55,48,41,100,98,87,30.11,30.04,9,2,10,0.02
2013-5-6,79,62,45,63,54,45,100,78,48,30.10,30.00,8,0,8,0.00
2013-5-7,83,68,50,61,54,48,95,65,42,30.06,29.95,10,2,11,0.00
2013-5-8,78,63,52,61,56,49,100,81,54,29.99,29.91,18,5,19,0.59
2013-5-9,76,61,53,65,59,52,100,93,66,29.95,29.84,16,4,18,1.75
2013-5-10,70,58,46,58,52,46,100,83,57,30.04,29.94,13,4,13,0.00
2013-5-11,68,54,41,50,39,29,88,58,38,30.20,29.95,18,8,19,0.00
2013-5-12,66,50,34,42,33,27,79,56,33,30.25,30.19,10,3,11,0.00
2013-5-13,68,67,67,38,38,38,34,34,34,30.19,30.19,9,8,9,0.00
2013-5-19,89,74,62,73,63,60,100,73,41,29.89,29.55,28,12,29,0.61
2013-5-20,79,69,59,66,62,59,100,81,60,29.66,29.53,28,12,29,0.04
2013-5-21,74,65,59,61,55,20,94,73,53,29.67,29.56,27,12,29,0.00
2013-5-22,68,60,54,60,55,51,99,85,66,29.90,29.64,15,7,16,0.00
2013-5-23,72,61,52,57,51,43,100,73,43,30.25,29.90,15,5,16,0.00
2013-5-24,74,62,46,55,50,43,93,66,47,30.31,30.11,26,9,28,0.02
2013-5-25,63,56,52,60,54,-22,100,95,78,30.22,30.06,30,14,31,0.55
2013-5-26,62,55,52,62,55,52,100,100,99,30.14,29.84,22,12,23,0.83
2013-5-27,82,66,56,68,62,56,100,88,61,29.99,29.64,35,6,35,8.18
2013-5-28,88,74,61,72,67,61,100,82,55,29.75,29.56,26,3,28,0.29
2013-5-29,78,68,63,74,67,62,100,95,81,29.77,29.62,31,8,31,0.61
2013-5-30,72,68,62,69,65,59,100,92,79,29.67,29.55,34,12,34,0.40
2013-5-31,84,72,60,68,64,58,100,77,49,29.69,29.60,24,11,25,0.22
2013-6-1,75,63,55,64,58,52,93,82,55,29.94,29.61,16,8,17,0.08
2013-6-2,71,60,53,55,51,46,91,72,55,30.07,29.93,10,2,11,0.00
2013-6-3,75,65,48,57,52,47,99,67,49,30.06,29.90,19,6,20,0.00
2013-6-4,69,62,56,65,59,54,100,91,79,30.06,29.91,25,9,27,1.82
2013-6-5,76,66,58,65,60,54,100,84,58,29.99,29.92,8,0,8,0.14
2013-6-6,74,63,54,63,57,53,99,80,61,29.99,29.90,8,1,9,0.00
2013-6-7,78,64,51,62,55,51,100,75,50,30.02,29.91,7,0,8,0.00
2013-6-8,72,63,52,64,58,51,100,84,61,29.92,29.73,20,7,21,0.57
2013-6-9,75,66,62,68,64,62,100,92,75,29.76,29.69,18,10,20,0.12
2013-6-10,84,70,59,70,65,59,100,85,59,29.89,29.76,11,1,12,0.00
2013-6-11,88,76,64,76,70,63,100,84,62,29.88,29.69,21,3,22,0.00
2013-6-12,95,79,65,79,71,57,100,78,54,29.91,29.64,20,7,21,0.04
2013-6-13,66,64,63,59,58,57,86,80,74,29.97,29.91,8,2,9,0.00
2013-6-14,77,70,66,69,67,64,100,89,71,30.01,29.83,46,12,46,1.44
2013-6-15,86,75,64,76,69,63,100,82,65,29.94,29.84,24,6,26,0.20
2013-6-16,91,79,67,74,65,58,100,67,37,29.97,29.91,12,1,13,0.00
2013-6-17,96,81,63,71,63,57,90,58,33,29.99,29.90,15,0,16,0.00
2013-6-18,90,78,64,68,62,57,85,60,41,30.02,29.95,8,0,9,0.00
2013-6-19,88,77,64,70,66,62,100,71,45,30.04,29.95,18,4,20,0.00
2013-6-20,90,75,67,77,67,56,92,75,65,30.51,29.89,22,10,24,0.28
2013-6-21,91,82,74,78,74,69,90,77,58,30.05,29.82,25,10,27,0.32
2013-6-22,95,83,71,76,71,64,81,69,49,30.02,29.82,20,8,21,0.04
2013-6-23,89,78,68,74,70,64,95,78,60,29.96,29.72,23,6,24,0.26
2013-6-24,82,74,69,76,70,65,100,91,73,29.96,29.79,33,6,33,0.20
2013-6-25,91,79,71,77,74,70,100,85,57,29.81,29.70,18,4,19,0.18
2013-6-26,98,85,71,82,74,67,100,71,43,29.87,29.65,15,2,16,0.06
2013-6-27,93,79,68,75,68,64,93,71,46,29.97,29.86,16,3,17,0.02
2013-6-28,93,82,68,68,63,55,86,55,33,29.91,29.81,21,4,22,0.00
2013-6-29,87,73,65,67,61,57,87,66,47,29.92,29.79,14,4,14,0.04
2013-6-30,80,70,58,62,56,51,96,65,42,30.08,29.91,14,2,15,0.00
2013-7-1,88,73,55,66,56,51,88,58,39,30.14,30.08,18,3,20,0.00
2013-7-2,86,75,59,64,57,51,84,55,44,30.13,30.03,7,0,8,0.00
2013-7-3,79,69,63,62,53,48,58,57,52,30.65,30.01,7,0,7,0.00
2013-7-4,79,68,63,75,52,38,90,60,40,30.58,29.99,19,3,20,0.00
2013-7-5,72,64,64,62,49,42,92,60,43,30.06,29.90,15,5,16,0.00
2013-7-6,93,80,64,82,68,55,85,67,47,30.64,29.84,14,4,15,0.00
2013-7-7,93,78,72,85,68,53,80,72,48,30.64,29.87,18,5,19,0.00
2013-7-8,97,88,85,78,76,68,81,69,56,29.94,29.87,10,1,11,0.00
2013-7-9,94,80,74,76,63,58,56,56,56,30.53,29.87,12,3,12,0.00
2013-7-10,88,79,68,65,61,58,70,54,41,30.07,29.87,8,0,9,0.00
2013-7-11,68,65,62,59,58,57,85,78,71,30.08,30.05,0,0,0,0.00
2013-7-14,85,76,70,66,65,64,84,70,53,30.17,30.08,8,1,8,0.00
2013-7-15,91,80,64,74,70,63,98,72,55,30.21,30.12,14,4,15,0.00
2013-7-16,102,86,69,78,73,69,100,69,43,30.25,30.17,10,0,10,0.00
2013-7-17,105,89,71,79,73,69,95,63,40,30.28,30.16,14,0,15,0.00
2013-7-18,102,88,73,78,73,70,93,63,42,30.17,29.92,15,5,16,0.00
2013-7-19,103,86,72,78,70,63,83,61,37,29.92,29.84,15,5,16,0.00
2013-7-20,95,81,61,70,64,58,91,61,37,29.99,29.86,8,0,9,0.00
2013-7-21,83,74,63,72,67,61,99,82,64,29.92,29.81,15,2,16,0.00
2013-7-22,103,84,64,79,72,64,100,72,44,29.84,29.67,15,3,16,0.77
2013-7-23,81,71,62,69,64,61,97,81,57,29.99,29.82,15,1,16,0.02
2013-7-24,90,75,57,68,63,55,99,70,45,30.07,29.99,8,0,9,0.00
2013-7-25,92,78,61,72,66,60,97,69,49,30.04,29.93,16,4,17,0.00
2013-7-26,87,74,59,72,62,53,100,68,42,30.06,29.94,13,1,13,0.00
2013-7-27,80,67,52,58,52,47,92,63,40,30.09,29.99,12,0,13,0.00
2013-7-28,87,66,50,59,52,47,90,66,33,30.06,29.99,14,1,14,0.00
2013-7-29,80,67,52,65,58,50,98,77,51,30.10,30.04,14,2,14,0.00
2013-7-30,75,68,63,70,67,63,100,96,82,30.08,30.02,10,1,11,0.12
2013-7-31,92,79,61,83,70,61,100,77,47,30.12,30.04,13,0,14,0.00
2013-8-1,96,80,59,83,66,58,98,66,33,30.08,29.90,228,2,228,0.00
2013-8-2,92,78,65,73,66,63,97,69,52,30.52,29.89,9,1,10,0.00
2013-8-3,86,74,60,66,61,24,100,68,44,30.18,29.99,10,1,11,0.00
2013-8-4,88,73,54,64,60,53,96,67,43,30.18,30.03,22,3,23,0.00
2013-8-5,91,76,64,75,69,62,100,80,56,30.03,29.79,16,2,17,0.02
2013-8-6,85,77,64,77,69,64,100,77,53,29.91,29.78,10,1,10,0.00
2013-8-7,86,77,66,70,67,63,97,72,53,30.01,29.78,6,0,6,0.00
2013-8-8,87,74,58,68,64,58,100,74,50,30.03,29.95,7,0,8,0.00
2013-8-9,88,76,63,72,65,61,99,72,45,30.10,30.00,6,0,6,0.00
2013-8-10,93,76,57,67,62,55,95,65,41,30.19,30.07,9,0,10,0.00
2013-8-11,94,78,61,72,66,59,99,71,47,30.10,29.97,16,3,17,0.24
2013-8-12,87,75,64,74,67,58,100,79,52,30.06,29.99,8,0,9,0.04
2013-8-13,85,69,56,68,60,54,96,73,46,30.16,30.05,9,0,10,0.00
2013-8-14,84,69,54,63,57,53,100,69,41,30.21,30.10,9,0,10,0.00
2013-8-15,63,62,61,60,58,57,89,86,84,30.12,30.09,4,0,4,0.00
2013-8-18,89,78,61,63,61,57,85,57,42,30.10,30.05,9,2,9,0.00
2013-8-19,72,59,58,60,57,56,96,94,66,30.07,30.05,0,0,0,0.00
2013-8-20,94,82,58,74,69,56,96,67,51,30.73,29.92,19,6,20,0.00
2013-8-21,98,84,70,74,70,66,94,66,43,29.99,29.92,15,5,16,0.00
2013-8-22,91,79,68,74,70,66,96,77,54,30.09,29.97,14,1,15,0.00
2013-8-23,92,77,63,78,71,63,100,83,59,30.10,30.00,14,3,15,0.00
2013-8-24,93,81,70,77,72,70,100,77,52,30.11,30.02,16,3,18,0.00
2013-8-25,89,84,72,74,72,69,91,69,61,30.13,30.06,16,8,17,0.00
2013-8-26,89,74,73,74,71,70,92,90,61,30.12,30.06,10,1,12,0.00
2013-8-27,103,88,73,77,73,65,92,63,44,30.06,29.87,15,8,16,0.00
2013-8-28,100,100,100,75,75,75,45,45,45,29.87,29.87,14,14,14,0.00
2013-9-2,100,100,100,75,75,75,45,45,45,29.87,29.87,14,14,14,0.00
2013-9-3,88,77,66,64,62,61,85,63,42,30.04,29.87,14,0,15,0.00
2013-9-4,96,78,59,70,65,58,97,68,39,30.14,30.02,122,1,183,0.00
2013-9-5,95,81,69,74,69,66,97,70,45,30.19,30.10,8,0,9,0.00
2013-9-6,94,80,66,70,67,64,96,67,42,30.11,29.92,15,2,16,0.00
2013-9-7,98,82,71,75,70,65,89,70,47,29.94,29.84,12,2,13,0.00
2013-9-8,76,74,68,73,69,63,100,85,70,29.94,29.82,14,4,15,0.00
2013-9-9,103,85,68,74,69,63,100,65,35,29.85,29.77,20,4,20,0.00
2013-9-10,99,83,69,72,68,62,91,63,41,29.99,29.85,21,5,22,0.10
2013-9-11,93,79,69,76,69,63,99,75,46,30.09,29.99,10,0,10,0.02
2013-9-12,82,71,58,64,55,49,92,60,35,30.20,30.06,10,1,10,0.00
2013-9-13,59,55,51,50,48,46,85,78,71,30.18,30.09,2,0,2,0.00
2013-9-14,80,65,46,55,50,44,96,62,33,30.10,29.88,16,3,17,0.00
2013-9-15,78,67,60,66,58,53,84,72,63,30.23,29.83,16,4,17,0.00
2013-9-16,72,60,51,60,54,51,100,82,56,30.32,30.21,15,4,16,0.00
2013-9-17,66,60,54,66,60,53,100,99,93,30.23,29.94,14,6,15,0.69
2013-9-18,92,78,65,74,70,65,100,79,52,29.95,29.72,18,6,19,0.41
2013-9-19,76,75,73,72,71,70,90,88,87,29.76,29.75,9,3,10,0.00
2013-9-20,55,53,52,49,48,47,83,81,79,29.99,29.99,8,1,9,0.00
2013-9-21,78,61,42,55,49,42,100,68,39,30.02,29.88,8,0,9,0.00
2013-9-22,82,65,50,61,55,48,100,73,47,29.95,29.84,15,3,16,0.00
2013-9-23,77,67,50,58,54,50,100,68,48,29.93,29.84,17,8,18,0.00
2013-9-24,76,57,56,55,54,53,93,91,48,29.84,29.82,13,2,13,0.00
2013-9-25,80,66,51,63,58,51,100,79,55,29.93,29.81,12,2,13,0.00
2013-9-26,85,71,57,67,63,57,100,78,51,29.90,29.82,20,6,20,0.00
2013-9-27,88,75,65,68,65,62,98,73,48,29.93,29.82,23,8,25,0.00
2013-9-28,71,63,50,67,58,47,97,85,61,30.03,29.74,18,5,20,0.08
2013-9-29,78,62,45,56,49,44,100,68,35,30.04,29.89,16,4,18,0.00
2013-9-30,80,64,49,58,52,47,100,69,41,29.91,29.71,19,5,20,0.00
2013-10-1,86,70,54,63,54,46,94,60,33,29.96,29.76,16,1,17,0.00
2013-10-2,86,70,56,68,58,46,90,66,48,30.00,29.84,16,4,17,0.00
2013-10-3,85,71,62,71,64,61,100,81,50,29.84,29.74,9,1,10,0.00
2013-10-4,76,68,62,72,67,62,100,95,83,29.89,29.69,35,6,35,2.49
2013-10-5,68,55,45,63,44,38,87,68,50,29.91,29.76,22,9,23,0.02
2013-10-6,53,48,42,51,45,38,98,90,71,29.91,29.72,17,4,18,0.12
2013-10-7,74,61,40,50,46,40,100,63,35,30.02,29.91,17,6,18,0.00
2013-10-8,73,73,73,46,46,46,38,38,38,29.97,29.97,8,8,8,0.00
2013-10-9,73,73,73,46,46,46,38,38,38,29.97,29.97,8,8,8,0.00